Laramie, WY

5:33 PM MDT on June 25, 2017 (GMT -0600)
Laramie Regional

Weather History for KLAR - December, 2012

Change the Weather History Date:

Monday, December 24, 2012

  Actual Average Record
Temperature  
Mean Temperature 22 °F 21 °F  
Max Temperature 31 °F 32 °F 56 °F (1955)
Min Temperature 13 °F 10 °F -22 °F (1983)
Degree Days  
Heating Degree Days 43 44  
Month to date heating degree days 867 1048  
Since 1 July heating degree days 2734 3360  
Cooling Degree Days 0 0  
Month to date cooling degree days 0 0  
Year to date cooling degree days 211 67  
Moisture  
Dew Point 18 °F    
Average Humidity 76    
Maximum Humidity 92    
Minimum Humidity 60    
Precipitation  
Precipitation 0.08 in 0.01 in 1.15 in (1982)
Month to date precipitation 0.18 0.26  
Year to date precipitation 6.24 10.86  
Sea Level Pressure  
Sea Level Pressure 29.74 in    
Wind  
Wind Speed 10 mph (SE)    
Max Wind Speed 26 mph    
Max Gust Speed 32 mph    
Visibility 4 miles    
Events Fog , Snow    
T = Trace of Precipitation, MM = Missing Value Source: NWS Daily Summary

Daily Weather History Graph

Daily Weather History Graph

Search for Another Location

Airport or City:

Trip Planner

Search our weather history database for the weather conditions in past years. The results will help you decide how hot, cold, wet, or windy it might be!

Date:

Astronomy

Dec. 24, 2012 Rise Set
Actual Time 7:26 AM MST 4:38 PM MST
Civil Twilight 6:55 AM MST 5:09 PM MST
Nautical Twilight 6:20 AM MST 5:44 PM MST
Astronomical Twilight 5:46 AM MST 6:18 PM MST
Moon 2:08 PM MST (12/24) 4:06 AM MST (12/24)
Length of Visible Light 10h 14m
Length of Day
9h 11m
Waxing Gibbous, 89% of the Moon is Illuminated
Dec 24
Waxing Gibbous
Dec 28
Full
Jan 4
Last Quarter
Jan 11
New
Jan 18
First Quarter

Hourly Weather History & Observations

Time (MST) Temp. Windchill Dew Point Humidity Pressure Visibility Wind Dir Wind Speed Gust Speed Precip Events Conditions
12:53 AM 16.0 °F 3.6 °F 9.0 °F 74% 29.91 in 10.0 mi ESE 10.4 mph - N/A   Clear
1:53 AM 25.0 °F 12.6 °F 12.9 °F 60% 29.85 in 10.0 mi South 15.0 mph - N/A   Mostly Cloudy
2:53 AM 27.0 °F 13.2 °F 15.1 °F 61% 29.80 in 10.0 mi SSW 20.7 mph 25.3 mph N/A   Mostly Cloudy
3:53 AM 28.9 °F 15.4 °F 17.1 °F 61% 29.76 in 10.0 mi WSW 21.9 mph 32.2 mph N/A   Overcast
4:53 AM 25.0 °F 14.2 °F 15.1 °F 66% 29.78 in 10.0 mi South 11.5 mph - N/A   Overcast
5:02 AM 21.2 °F 8.3 °F 14.0 °F 74% 29.75 in 10.0 mi South 13.8 mph - N/A   Overcast
5:53 AM 19.9 °F 10.1 °F 12.9 °F 74% 29.83 in 10.0 mi SE 8.1 mph - N/A   Overcast
6:53 AM 19.9 °F 10.1 °F 12.9 °F 74% 29.81 in 10.0 mi South 8.1 mph - N/A   Overcast
7:53 AM 24.1 °F 19.7 °F 14.0 °F 65% 29.80 in 10.0 mi South 3.5 mph - N/A   Mostly Cloudy
8:53 AM 26.1 °F 21.9 °F 17.1 °F 69% 29.79 in 10.0 mi SW 3.5 mph - N/A   Overcast
9:53 AM 28.0 °F 21.7 °F 18.0 °F 66% 29.81 in 10.0 mi East 5.8 mph - N/A   Overcast
10:53 AM 28.0 °F 22.8 °F 23.0 °F 81% 29.77 in 4.0 mi East 4.6 mph - 0.00 in Snow Light Snow
11:06 AM 28.4 °F 23.3 °F 23.0 °F 80% 29.72 in 7.0 mi East 4.6 mph - 0.00 in Snow Light Snow
11:53 AM 30.0 °F 23.2 °F 23.0 °F 75% 29.75 in 10.0 mi East 6.9 mph - 0.00 in   Overcast
12:53 PM 30.9 °F 21.7 °F 21.9 °F 69% 29.74 in 10.0 mi SSE 11.5 mph - N/A   Overcast
1:53 PM 28.0 °F 17.5 °F 24.1 °F 85% 29.68 in 8.0 mi SSE 12.7 mph - 0.00 in Snow Light Snow
2:53 PM 28.9 °F 21.9 °F 24.1 °F 82% 29.67 in 5.0 mi SE 6.9 mph - 0.00 in Snow Light Snow
3:03 PM 28.4 °F 22.2 °F 24.8 °F 86% 29.65 in 2.5 mi SE 5.8 mph - 0.00 in Snow Light Snow
3:17 PM 28.4 °F 22.2 °F 24.8 °F 86% 29.65 in 1.2 mi SE 5.8 mph - 0.00 in Snow Light Snow
3:53 PM 27.0 °F - 25.0 °F 92% 29.67 in 1.0 mi Calm Calm - 0.00 in Snow Light Snow
3:59 PM 26.6 °F - 24.8 °F 93% 29.65 in 0.8 mi Calm Calm - 0.00 in Snow Light Snow
4:09 PM 26.6 °F - 24.8 °F 93% 29.65 in 0.5 mi Calm Calm - 0.01 in Fog , Snow Light Snow
4:19 PM 26.6 °F - 24.8 °F 93% 29.65 in 0.5 mi Calm Calm - 0.01 in Fog , Snow Light Snow
4:29 PM 26.6 °F - 24.8 °F 93% 29.65 in 0.2 mi Calm Calm - 0.02 in Fog , Snow Snow
4:51 PM 24.8 °F 16.1 °F 23.0 °F 93% 29.65 in 1.0 mi ESE 8.1 mph - 0.04 in Snow Light Snow
4:53 PM 25.0 °F 16.3 °F 23.0 °F 92% 29.70 in 1.0 mi ESE 8.1 mph - 0.04 in Snow Light Snow
5:24 PM 24.8 °F 16.9 °F 21.2 °F 86% 29.66 in 1.8 mi ESE 6.9 mph - 0.01 in Snow Light Snow
5:32 PM 24.8 °F 16.1 °F 21.2 °F 86% 29.66 in 2.5 mi ESE 8.1 mph - 0.01 in Snow Light Snow
5:39 PM 24.8 °F 16.1 °F 19.4 °F 80% 29.67 in 3.0 mi SE 8.1 mph - 0.01 in Snow Light Snow
5:46 PM 24.8 °F 17.9 °F 19.4 °F 80% 29.67 in 2.5 mi SE 5.8 mph - 0.01 in Snow Light Snow
5:53 PM 24.1 °F 16.0 °F 21.0 °F 88% 29.76 in 2.0 mi SE 6.9 mph - 0.01 in Snow Light Snow
6:04 PM 24.8 °F 17.9 °F 21.2 °F 86% 29.68 in 1.5 mi SE 5.8 mph - 0.00 in Snow Light Snow
6:26 PM 21.2 °F 10.9 °F 19.4 °F 93% 29.68 in 2.0 mi SSE 9.2 mph - 0.00 in Snow Light Snow
6:34 PM 21.2 °F 10.1 °F 19.4 °F 93% 29.68 in 1.5 mi SSE 10.4 mph - 0.00 in Snow Light Snow
6:53 PM 21.0 °F 8.6 °F 19.0 °F 92% 29.78 in 0.8 mi SSE 12.7 mph - 0.00 in Snow Light Snow
7:05 PM 21.2 °F 8.9 °F 19.4 °F 93% 29.69 in 1.0 mi SSE 12.7 mph - 0.00 in Snow Light Snow
7:25 PM 21.2 °F 8.9 °F 19.4 °F 93% 29.69 in 1.2 mi SSE 12.7 mph - 0.00 in Snow Light Snow
7:53 PM 19.9 °F 7.9 °F 18.0 °F 92% 29.78 in 1.0 mi SSE 11.5 mph - 0.00 in Snow Light Snow
8:08 PM 19.4 °F 7.9 °F 17.6 °F 93% 29.71 in 0.8 mi SSE 10.4 mph - 0.00 in Snow Light Snow
8:24 PM 19.4 °F 7.9 °F 17.6 °F 93% 29.71 in 1.2 mi SSE 10.4 mph - 0.01 in Snow Light Snow
8:35 PM 19.4 °F 7.9 °F 17.6 °F 93% 29.71 in 2.0 mi SSE 10.4 mph - 0.01 in Snow Light Snow
8:48 PM 19.4 °F 7.9 °F 17.6 °F 93% 29.72 in 3.0 mi SSE 10.4 mph - 0.01 in Snow Light Snow
8:53 PM 19.9 °F 8.6 °F 17.1 °F 89% 29.80 in 3.0 mi SE 10.4 mph - 0.01 in Snow Light Snow
9:04 PM 19.4 °F 8.6 °F 15.8 °F 86% 29.73 in 5.0 mi SSE 9.2 mph - 0.00 in Snow Light Snow
9:53 PM 19.0 °F 7.5 °F 14.0 °F 81% 29.81 in 10.0 mi SSE 10.4 mph - 0.00 in   Overcast
10:28 PM 17.6 °F 7.3 °F 12.2 °F 79% 29.77 in 2.5 mi SSE 8.1 mph - 0.00 in Snow Light Snow
10:40 PM 17.6 °F 5.7 °F 12.2 °F 79% 29.78 in 1.8 mi SSE 10.4 mph - 0.00 in Snow Light Snow
10:53 PM 17.1 °F 4.3 °F 12.9 °F 84% 29.86 in 1.2 mi South 11.5 mph - 0.00 in Snow Light Snow
11:09 PM 15.8 °F 7.2 °F 12.2 °F 86% 29.80 in 0.8 mi SSE 5.8 mph - 0.00 in Snow Light Snow
11:25 PM 15.8 °F 6.1 °F 12.2 °F 86% 29.80 in 0.8 mi NNE 6.9 mph - 0.01 in Snow Light Snow
11:38 PM 14.0 °F 2.0 °F 10.4 °F 86% 29.80 in 0.5 mi NE 9.2 mph - 0.01 in Fog , Snow Snow
11:48 PM 12.2 °F -0.2 °F 10.4 °F 92% 29.81 in 0.8 mi NE 9.2 mph - 0.01 in Snow Light Snow
11:53 PM 12.9 °F 0.7 °F 9.0 °F 84% 29.90 in 1.0 mi NE 9.2 mph - 0.02 in Snow Light Snow